| time (UTC) | temp F | wind direction | speed MPH | gust MPH | rain 1hr in | rain 24hr in | rain mn in | humidity % | barometer mb |
| 20260504060230 | 54 | 100 | 2.0 | 2.0 | 0.00 | 0.00 | 0.00 | 69 | 1004.3 |
| 20260504050657 | 56 | 116 | 1.0 | 2.0 | 0.00 | 0.00 | 0.00 | 65 | 1004.3 |
| 20260504050154 | 57 | 103 | 1.0 | 2.0 | 0.00 | 0.00 | 0.00 | 64 | 1004.5 |
| 20260504045652 | 57 | 127 | 1.0 | 3.0 | 0.00 | 0.00 | 0.00 | 64 | 1004.4 |
| 20260504045151 | 57 | 147 | 0.0 | 3.0 | 0.00 | 0.00 | 0.00 | 64 | 1004.5 |
| 20260504044649 | 57 | 135 | 0.0 | 2.0 | 0.00 | 0.00 | 0.00 | 64 | 1004.4 |
| 20260504044146 | 57 | 123 | 2.0 | 2.0 | 0.00 | 0.00 | 0.00 | 64 | 1004.4 |
| 20260504043643 | 57 | 135 | 0.0 | 2.0 | 0.00 | 0.00 | 0.00 | 64 | 1004.4 |
| 20260504043140 | 57 | 128 | 0.0 | 2.0 | 0.00 | 0.00 | 0.00 | 64 | 1004.2 |
| 20260504042638 | 57 | 81 | 0.0 | 2.0 | 0.00 | 0.00 | 0.00 | 64 | 1004.3 |
| 20260504042134 | 57 | 119 | 1.0 | 2.0 | 0.00 | 0.00 | 0.00 | 64 | 1004.3 |
| 20260504041630 | 57 | 133 | 1.0 | 2.0 | 0.00 | 0.00 | 0.00 | 64 | 1004.2 |
| 20260504041126 | 57 | 80 | 0.0 | 3.0 | 0.00 | 0.00 | 0.00 | 64 | 1004.2 |
| 20260504040624 | 57 | 129 | 0.0 | 2.0 | 0.00 | 0.00 | 0.00 | 64 | 1004.4 |
| 20260504040121 | 57 | 68 | 0.0 | 2.0 | 0.00 | 0.00 | 0.00 | 64 | 1004.4 |
| 20260504035617 | 57 | 103 | 2.0 | 2.0 | 0.00 | 0.00 | 0.00 | 63 | 1004.4 |
| 20260504035114 | 57 | 140 | 0.0 | 2.0 | 0.00 | 0.00 | 0.00 | 63 | 1004.5 |
| 20260504034612 | 58 | 128 | 2.0 | 2.0 | 0.00 | 0.00 | 0.00 | 62 | 1004.3 |
| 20260504034108 | 58 | 111 | 1.0 | 2.0 | 0.00 | 0.00 | 0.00 | 62 | 1004.4 |
| 20260504033606 | 58 | 150 | 2.0 | 2.0 | 0.00 | 0.00 | 0.00 | 61 | 1004.4 |
| 20260504033103 | 59 | 134 | 2.0 | 3.0 | 0.00 | 0.00 | 0.00 | 61 | 1004.5 |
| 20260504032600 | 59 | 135 | 2.0 | 2.0 | 0.00 | 0.00 | 0.00 | 61 | 1004.5 |
| 20260504032057 | 59 | 131 | 2.0 | 2.0 | 0.00 | 0.00 | 0.00 | 60 | 1004.6 |
| 20260504031554 | 59 | 148 | 2.0 | 3.0 | 0.00 | 0.00 | 0.00 | 60 | 1004.6 |
| 20260504031050 | 59 | 112 | 2.0 | 2.0 | 0.00 | 0.00 | 0.00 | 60 | 1004.6 |
| 20260504030548 | 59 | 121 | 1.0 | 3.0 | 0.00 | 0.00 | 0.00 | 59 | 1004.7 |
| 20260504030043 | 59 | 148 | 0.0 | 2.0 | 0.00 | 0.00 | 0.00 | 59 | 1004.5 |
| 20260504025541 | 59 | 103 | 1.0 | 2.0 | 0.00 | 0.00 | 0.00 | 59 | 1004.7 |
| 20260504025038 | 59 | 141 | 1.0 | 2.0 | 0.00 | 0.00 | 0.00 | 59 | 1005.0 |
| 20260504024535 | 59 | 133 | 1.0 | 2.0 | 0.00 | 0.00 | 0.00 | 58 | 1004.8 |
| 20260504024031 | 60 | 137 | 2.0 | 2.0 | 0.00 | 0.00 | 0.00 | 58 | 1004.8 |
| 20260504023528 | 60 | 141 | 0.0 | 2.0 | 0.00 | 0.00 | 0.00 | 57 | 1004.8 |
| 20260504023024 | 60 | 136 | 2.0 | 2.0 | 0.00 | 0.00 | 0.00 | 57 | 1004.5 |
| 20260504022520 | 60 | 141 | 1.0 | 3.0 | 0.00 | 0.00 | 0.00 | 57 | 1004.7 |
| 20260504022017 | 60 | 141 | 2.0 | 2.0 | 0.00 | 0.00 | 0.00 | 57 | 1004.6 |
| 20260504021514 | 60 | 125 | 1.0 | 2.0 | 0.00 | 0.00 | 0.00 | 57 | 1004.6 |
| 20260504021011 | 60 | 140 | 2.0 | 2.0 | 0.00 | 0.00 | 0.00 | 56 | 1004.5 |
| 20260504020508 | 60 | 120 | 1.0 | 2.0 | 0.00 | 0.00 | 0.00 | 56 | 1004.6 |
| 20260504020004 | 60 | 125 | 1.0 | 2.0 | 0.00 | 0.00 | 0.00 | 56 | 1004.5 |
| 20260504015500 | 60 | 127 | 1.0 | 3.0 | 0.00 | 0.00 | 0.00 | 56 | 1004.4 |
| 20260504014956 | 59 | 132 | 2.0 | 2.0 | 0.00 | 0.00 | 0.00 | 58 | 1004.4 |
| 20260504014453 | 59 | 96 | 1.0 | 2.0 | 0.00 | 0.00 | 0.00 | 60 | 1004.5 |
| 20260504013950 | 59 | 106 | 1.0 | 2.0 | 0.00 | 0.00 | 0.00 | 57 | 1004.4 |
| 20260504013449 | 60 | 105 | 2.0 | 2.0 | 0.00 | 0.00 | 0.00 | 57 | 1004.4 |
| 20260504012944 | 59 | 141 | 1.0 | 2.0 | 0.00 | 0.00 | 0.00 | 56 | 1004.2 |
| 20260504012442 | 60 | 71 | 1.0 | 2.0 | 0.00 | 0.00 | 0.00 | 56 | 1004.2 |
| 20260504011940 | 61 | 83 | 1.0 | 2.0 | 0.00 | 0.00 | 0.00 | 53 | 1004.2 |
| 20260504011436 | 62 | 97 | 1.0 | 2.0 | 0.00 | 0.00 | 0.00 | 52 | 1004.0 |
| 20260504010932 | 62 | 97 | 2.0 | 2.0 | 0.00 | 0.00 | 0.00 | 51 | 1004.1 |
| 20260504010428 | 62 | 89 | 1.0 | 2.0 | 0.00 | 0.00 | 0.00 | 50 | 1003.9 |
| 20260504005924 | 63 | 98 | 1.0 | 2.0 | 0.00 | 0.00 | 0.00 | 49 | 1003.9 |
| 20260504005421 | 64 | 89 | 0.0 | 2.0 | 0.00 | 0.00 | 0.00 | 48 | 1004.0 |
| 20260504004919 | 64 | 136 | 1.0 | 2.0 | 0.00 | 0.00 | 0.00 | 47 | 1004.0 |
| 20260504004416 | 64 | 122 | 0.0 | 2.0 | 0.00 | 0.00 | 0.00 | 47 | 1004.0 |
| 20260504003913 | 65 | 141 | 0.0 | 2.0 | 0.00 | 0.00 | 0.00 | 47 | 1003.9 |
| 20260504003409 | 65 | 135 | 0.0 | 2.0 | 0.00 | 0.00 | 0.00 | 46 | 1004.0 |
| 20260504002906 | 66 | 298 | 0.0 | 2.0 | 0.00 | 0.00 | 0.00 | 46 | 1004.2 |
| 20260504002403 | 66 | 276 | 1.0 | 1.0 | 0.00 | 0.00 | 0.00 | 46 | 1004.1 |
| 20260504001900 | 66 | 122 | 2.0 | 2.0 | 0.00 | 0.00 | 0.00 | 44 | 1003.9 |
| 20260504001358 | 67 | 108 | 0.0 | 2.0 | 0.00 | 0.00 | 0.00 | 42 | 1003.9 |
| 20260504000854 | 67 | 68 | 0.0 | 2.0 | 0.00 | 0.00 | 0.00 | 43 | 1003.7 |
| 20260504000353 | 68 | 129 | 0.0 | 2.0 | 0.00 | 0.00 | 0.00 | 41 | 1004.1 |
| 20260503235849 | 68 | 218 | 2.0 | 5.0 | 0.00 | 0.00 | 0.00 | 41 | 1004.1 |
| 20260503235347 | 68 | 253 | 2.0 | 3.0 | 0.00 | 0.00 | 0.00 | 40 | 1004.2 |
| 20260503234844 | 69 | 320 | 1.0 | 2.0 | 0.00 | 0.00 | 0.00 | 40 | 1004.2 |
| 20260503234341 | 69 | 355 | 0.0 | 4.0 | 0.00 | 0.00 | 0.00 | 40 | 1004.0 |
| 20260503233839 | 69 | 265 | 4.0 | 4.0 | 0.00 | 0.00 | 0.00 | 39 | 1004.0 |
| 20260503233335 | 69 | 161 | 2.0 | 5.0 | 0.00 | 0.00 | 0.00 | 39 | 1004.2 |
| 20260503232831 | 69 | 149 | 2.0 | 7.0 | 0.00 | 0.00 | 0.00 | 39 | 1004.0 |
| 20260503232329 | 69 | 141 | 2.0 | 2.0 | 0.00 | 0.00 | 0.00 | 39 | 1004.2 |
| 20260503231827 | 69 | 124 | 0.0 | 2.0 | 0.00 | 0.00 | 0.00 | 39 | 1004.1 |
| 20260503231324 | 70 | 239 | 2.0 | 7.0 | 0.00 | 0.00 | 0.00 | 38 | 1004.4 |
| 20260503230819 | 70 | 289 | 2.0 | 3.0 | 0.00 | 0.00 | 0.00 | 38 | 1004.3 |
| 20260503230317 | 70 | 221 | 0.0 | 2.0 | 0.00 | 0.00 | 0.00 | 39 | 1004.2 |
| 20260503225814 | 71 | 161 | 5.0 | 5.0 | 0.00 | 0.00 | 0.00 | 38 | 1004.4 |
| 20260503225310 | 71 | 257 | 3.0 | 5.0 | 0.00 | 0.00 | 0.00 | 37 | 1004.5 |
| 20260503224806 | 71 | 167 | 3.0 | 4.0 | 0.00 | 0.00 | 0.00 | 37 | 1004.3 |
| 20260503224304 | 71 | 200 | 1.0 | 4.0 | 0.00 | 0.00 | 0.00 | 37 | 1004.2 |
| 20260503223801 | 71 | 204 | 2.0 | 3.0 | 0.00 | 0.00 | 0.00 | 39 | 1004.3 |
| 20260503223259 | 71 | 152 | 0.0 | 3.0 | 0.00 | 0.00 | 0.00 | 37 | 1004.4 |
| 20260503222755 | 71 | 148 | 2.0 | 4.0 | 0.00 | 0.00 | 0.00 | 39 | 1004.4 |
| 20260503222253 | 70 | 204 | 1.0 | 2.0 | 0.00 | 0.00 | 0.00 | 39 | 1004.3 |
| 20260503221751 | 71 | 145 | 2.0 | 4.0 | 0.00 | 0.00 | 0.00 | 38 | 1004.5 |
| 20260503221249 | 70 | 143 | 3.0 | 4.0 | 0.00 | 0.00 | 0.00 | 40 | 1004.4 |
| 20260503220745 | 69 | 98 | 1.0 | 2.0 | 0.00 | 0.00 | 0.00 | 41 | 1004.4 |
| 20260503220242 | 69 | 269 | 0.0 | 4.0 | 0.00 | 0.00 | 0.00 | 39 | 1004.6 |
| 20260503215739 | 68 | 96 | 0.0 | 3.0 | 0.00 | 0.00 | 0.00 | 40 | 1004.7 |
| 20260503215236 | 68 | 174 | 4.0 | 6.0 | 0.00 | 0.00 | 0.00 | 41 | 1004.7 |
| 20260503214734 | 68 | 124 | 0.0 | 5.0 | 0.00 | 0.00 | 0.00 | 40 | 1004.9 |
| 20260503214230 | 68 | 183 | 0.0 | 5.0 | 0.00 | 0.00 | 0.00 | 39 | 1005.0 |
| 20260503213729 | 68 | 192 | 2.0 | 5.0 | 0.00 | 0.00 | 0.00 | 40 | 1005.0 |
| 20260503213225 | 68 | 208 | 0.0 | 4.0 | 0.00 | 0.00 | 0.00 | 42 | 1005.0 |
| 20260503212722 | 68 | 202 | 2.0 | 4.0 | 0.00 | 0.00 | 0.00 | 39 | 1005.2 |
| 20260503212220 | 68 | 119 | 1.0 | 4.0 | 0.00 | 0.00 | 0.00 | 43 | 1005.2 |
| 20260503211717 | 68 | 202 | 4.0 | 5.0 | 0.00 | 0.00 | 0.00 | 38 | 1005.2 |
| 20260503211213 | 68 | 212 | 2.0 | 3.0 | 0.00 | 0.00 | 0.00 | 38 | 1005.2 |
| 20260503210709 | 68 | 231 | 2.0 | 4.0 | 0.00 | 0.00 | 0.00 | 40 | 1005.3 |
| 20260503210207 | 68 | 151 | 2.0 | 7.0 | 0.00 | 0.00 | 0.00 | 39 | 1005.4 |
| 20260503205701 | 67 | 186 | 2.0 | 4.0 | 0.00 | 0.00 | 0.00 | 39 | 1005.5 |
| 20260503205158 | 67 | 260 | 6.0 | 7.0 | 0.00 | 0.00 | 0.00 | 38 | 1005.7 |
| 20260503204654 | 68 | 258 | 3.0 | 7.0 | 0.00 | 0.00 | 0.00 | 37 | 1005.8 |
| 20260503204152 | 68 | 158 | 0.0 | 5.0 | 0.00 | 0.00 | 0.00 | 41 | 1005.8 |
| 20260503203649 | 68 | 148 | 2.0 | 5.0 | 0.00 | 0.00 | 0.00 | 40 | 1005.9 |
| 20260503203147 | 67 | 111 | 2.0 | 8.0 | 0.00 | 0.00 | 0.00 | 39 | 1006.0 |
| 20260503202644 | 67 | 171 | 3.0 | 7.0 | 0.00 | 0.00 | 0.00 | 39 | 1006.1 |
| 20260503202142 | 66 | 215 | 2.0 | 4.0 | 0.00 | 0.00 | 0.00 | 40 | 1006.2 |
| 20260503201640 | 66 | 252 | 4.0 | 6.0 | 0.00 | 0.00 | 0.00 | 39 | 1006.1 |
| 20260503201137 | 65 | 186 | 2.0 | 4.0 | 0.00 | 0.00 | 0.00 | 45 | 1006.6 |
| 20260503200627 | 64 | 187 | 2.0 | 4.0 | 0.00 | 0.00 | 0.00 | 44 | 1006.6 |
| 20260503200124 | 64 | 214 | 1.0 | 6.0 | 0.00 | 0.00 | 0.00 | 46 | 1006.7 |
| 20260503195621 | 65 | 266 | 2.0 | 5.0 | 0.00 | 0.00 | 0.00 | 44 | 1006.7 |
| 20260503195117 | 65 | 261 | 5.0 | 6.0 | 0.00 | 0.00 | 0.00 | 45 | 1006.9 |
| 20260503194615 | 64 | 197 | 0.0 | 4.0 | 0.00 | 0.00 | 0.00 | 46 | 1007.1 |
| 20260503194115 | 64 | 260 | 6.0 | 6.0 | 0.00 | 0.00 | 0.00 | 46 | 1007.2 |
| 20260503193613 | 64 | 239 | 1.0 | 5.0 | 0.00 | 0.00 | 0.00 | 48 | 1007.3 |
| 20260503193108 | 64 | 175 | 2.0 | 4.0 | 0.00 | 0.00 | 0.00 | 45 | 1007.2 |
| 20260503192604 | 65 | 269 | 5.0 | 5.0 | 0.00 | 0.00 | 0.00 | 47 | 1007.5 |
| 20260503192100 | 64 | 259 | 0.0 | 6.0 | 0.00 | 0.00 | 0.00 | 45 | 1007.2 |
| 20260503191557 | 65 | 191 | 3.0 | 7.0 | 0.00 | 0.00 | 0.00 | 46 | 1007.5 |
| 20260503191053 | 65 | 226 | 2.0 | 6.0 | 0.00 | 0.00 | 0.00 | 45 | 1007.3 |
| 20260503190550 | 64 | 169 | 0.0 | 3.0 | 0.00 | 0.00 | 0.00 | 50 | 1007.4 |
| 20260503190048 | 64 | 230 | 2.0 | 5.0 | 0.00 | 0.00 | 0.00 | 49 | 1007.5 |
| 20260503185539 | 64 | 228 | 5.0 | 6.0 | 0.00 | 0.00 | 0.00 | 45 | 1007.3 |
| 20260503185038 | 64 | 148 | 2.0 | 4.0 | 0.00 | 0.00 | 0.00 | 49 | 1007.6 |
| 20260503184534 | 63 | 151 | 3.0 | 6.0 | 0.00 | 0.00 | 0.00 | 47 | 1007.5 |
| 20260503184031 | 63 | 119 | 1.0 | 4.0 | 0.00 | 0.00 | 0.00 | 49 | 1007.5 |
| 20260503183528 | 63 | 243 | 2.0 | 8.0 | 0.00 | 0.00 | 0.00 | 46 | 1007.6 |
| 20260503183025 | 62 | 204 | 0.0 | 5.0 | 0.00 | 0.00 | 0.00 | 49 | 1007.6 |
| 20260503182523 | 61 | 180 | 2.0 | 6.0 | 0.00 | 0.00 | 0.00 | 46 | 1007.9 |
| 20260503182021 | 60 | 187 | 6.0 | 11.0 | 0.00 | 0.00 | 0.00 | 47 | 1008.2 |
| 20260503181518 | 62 | 225 | 2.0 | 7.0 | 0.00 | 0.00 | 0.00 | 49 | 1007.9 |
| 20260503181014 | 62 | 120 | 3.0 | 5.0 | 0.00 | 0.00 | 0.00 | 49 | 1008.5 |
| 20260503180511 | 62 | 119 | 2.0 | 6.0 | 0.00 | 0.00 | 0.00 | 50 | 1008.5 |
| 20260503180008 | 62 | 87 | 2.0 | 5.0 | 0.00 | 0.00 | 0.00 | 52 | 1008.3 |
| 20260503175506 | 61 | 179 | 2.0 | 6.0 | 0.00 | 0.00 | 0.00 | 48 | 1008.7 |
| 20260503175002 | 61 | 166 | 2.0 | 3.0 | 0.00 | 0.00 | 0.00 | 53 | 1008.7 |
| 20260503174500 | 60 | 200 | 4.0 | 5.0 | 0.00 | 0.00 | 0.00 | 52 | 1008.9 |
| 20260503173955 | 61 | 179 | 2.0 | 5.0 | 0.00 | 0.00 | 0.00 | 51 | 1008.9 |
| 20260503173451 | 61 | 205 | 4.0 | 4.0 | 0.00 | 0.00 | 0.00 | 54 | 1009.0 |
| 20260503172948 | 61 | 191 | 1.0 | 4.0 | 0.00 | 0.00 | 0.00 | 54 | 1009.3 |
| 20260503172446 | 60 | 146 | 5.0 | 5.0 | 0.00 | 0.00 | 0.00 | 52 | 1009.6 |
| 20260503171942 | 60 | 217 | 3.0 | 5.0 | 0.00 | 0.00 | 0.00 | 54 | 1009.6 |
| 20260503171438 | 59 | 157 | 4.0 | 5.0 | 0.00 | 0.00 | 0.00 | 58 | 1009.9 |
| 20260503170936 | 58 | 258 | 1.0 | 4.0 | 0.00 | 0.00 | 0.00 | 59 | 1010.2 |
| 20260503170432 | 58 | 216 | 3.0 | 7.0 | 0.00 | 0.00 | 0.00 | 56 | 1009.9 |
| 20260503150825 | 55 | 143 | 4.0 | 7.0 | 0.00 | 0.00 | 0.00 | 55 | 1011.4 |
| 20260503150321 | 55 | 260 | 3.0 | 5.0 | 0.00 | 0.00 | 0.00 | 56 | 1011.7 |
| 20260503140245 | 53 | 284 | 0.0 | 3.0 | 0.00 | 0.00 | 0.00 | 55 | 1012.0 |
| 20260503131215 | 51 | 159 | 0.0 | 3.0 | 0.00 | 0.00 | 0.00 | 55 | 1012.4 |
| 20260503130712 | 51 | 133 | 0.0 | 3.0 | 0.00 | 0.00 | 0.00 | 55 | 1012.8 |
| 20260503130209 | 50 | 97 | 1.0 | 3.0 | 0.00 | 0.00 | 0.00 | 59 | 1012.7 |
| 20260503120135 | 48 | 246 | 0.0 | 3.0 | 0.00 | 0.00 | 0.00 | 59 | 1012.9 |
| 20260503110603 | 48 | 161 | 0.0 | 4.0 | 0.00 | 0.00 | 0.00 | 56 | 1012.0 |
| 20260503090449 | 46 | 142 | 1.0 | 2.0 | 0.00 | 0.00 | 0.00 | 56 | 1012.6 |
| 20260503081416 | 46 | 87 | 1.0 | 2.0 | 0.00 | 0.00 | 0.00 | 56 | 1013.1 |
| 20260503080913 | 46 | 139 | 0.0 | 2.0 | 0.00 | 0.00 | 0.00 | 55 | 1013.0 |
| 20260503080409 | 46 | 95 | 1.0 | 2.0 | 0.00 | 0.00 | 0.00 | 56 | 1013.1 |
| 20260503072846 | 45 | 118 | 1.0 | 2.0 | 0.00 | 0.00 | 0.00 | 57 | 1013.1 |
| 20260503072343 | 45 | 93 | 0.0 | 2.0 | 0.00 | 0.00 | 0.00 | 56 | 1013.1 |
| 20260503071839 | 44 | 101 | 1.0 | 2.0 | 0.00 | 0.00 | 0.00 | 57 | 1013.1 |
| 20260503071337 | 44 | 126 | 0.0 | 2.0 | 0.00 | 0.00 | 0.00 | 59 | 1013.4 |
| 20260503070833 | 44 | 112 | 2.0 | 2.0 | 0.00 | 0.00 | 0.00 | 60 | 1013.2 |
| 20260503070331 | 44 | 123 | 2.0 | 2.0 | 0.00 | 0.00 | 0.00 | 60 | 1013.4 |